Погода в Оленьем

Россия / Волгоградская область     49°10′36″N   44°52′07″E
темп.,
°C
ветер,
м/с
пор.,
м/с
влажн.,
%
обл.,
%
осадки,
мм/ч
давл.,
гПа
погр.,
м
16 мая, вс
вс1600:00+19ю411355 0.0 1015150
03:00+17ююв4640100 0.0 101576
06:00+18юв3751100 0.0 1015147
09:00+24юв463992 0.0 1015359
12:00+29юв510266 0.0 10141530
15:00+31юв692128 0.0 10132436
18:00+28вюв5103439 0.0 1012241
21:00+22юв41343100 0.0 1013259
17 мая, пн
пн1700:00+20юв493881 0.0 1013133
03:00+17вюв333752 0.0 101338
06:00+18всв5114316 0.0 1013214
09:00+25вюв69325 0.0 1013448
12:00+30юв9122024 0.0 10122673
15:00+30юв8112042 0.0 10112389
18:00+26вюв61131100 0.0 1010255
21:00+21в41041100 0.0 1011136
18 мая, вт
вт1800:00+19в333474 0.0 101129
03:00+18всв493299 0.0 1010117
06:00+18всв513404 0.0 1010267
09:00+25юв612302 0.0 1009627
12:00+31юв913201 0.0 10092167
15:00+31юв912187 0.0 10083182
18:00+27ююв51227100 0.0 1008335
21:00+21юв463573 0.0 100971
19 мая, ср
ср1900:00+20вюв4537100 0.0 100849
03:00+19в453795 0.0 100861
06:00+20ююв3543100 0.0 1008132
09:00+23сз2143100 0.0 1008429
12:00+26вюв1535100 0.0 1008696
15:00+27ю4438100 0.0 10081308
18:00+21з91160100 0.0 1009687
21:00+16зюз81374100 0.1 1011545
20 мая, чт
чт2000:00+14зюз488058 0.4 1013317
03:00+14юз598778 0.4 1013414
06:00+14юз58845 0.0 1014436
09:00+18юз566482 0.1 10151219
12:00+19юз565793 0.5 10161447
15:00+20зюз684969 0.6 10151923
18:00+18з78593 0.0 10161186
21:00+16зсз357177 0.0 1018157